#timestamp,LO_Frequency,Hit,StdDev 
1531144815.1,286047000.7,N
1531144835.8,286047000.9,N
1531144855.7,286047000.6,N
1531144905.6,286047001.1,E
1531144915.5,286046998.5,N
1531144935.3,286047001.2,P
1531144955.1,286046998.7,N
1531144975.9,286046998.8,N
1531144995.7,286046998.7,N
1531145015.6,286046999.3,N
1531145035.4,286047001.1,N
1531145055.2,286047001.0,N
1531145075.1,286047001.1,N
1531145076.0,286047001.1,N
1531145095.8,286046998.5,N
1531145115.6,286047001.0,N
1531145135.5,286046999.8,N
1531145155.3,286047000.3,N
1531145175.2,286047001.1,N
1531145195.9,286047000.8,N
1531145215.7,286047000.7,N
1531145235.6,286047000.6,N
1531145255.4,286047001.1,N
1531145275.2,286047001.1,N
1531145295.1,286047000.8,N
1531145296.0,286047000.8,N
1531145315.8,286046998.9,N
1531145335.7,286047001.1,N
1531145355.5,286047000.4,N
1531145375.3,286046999.0,N
1531145395.2,286046998.3,N
1531145415.0,286046998.1,N
1531145415.9,286046998.1,N
1531145435.7,286047000.8,N
1531145455.6,286046998.2,N
1531145475.4,286046998.6,N
1531145495.3,286046998.4,N
1531145515.1,286047000.9,N
1531145516.0,286047000.9,N
1531145535.8,286046998.6,N
1531145555.7,286046998.3,N
1531145575.5,286046999.3,N
1531145595.3,286046999.4,N
1531145615.2,286046999.4,N
1531145635.0,286046999.0,N
1531145635.9,286046999.0,N
1531145655.8,286046999.4,N
1531145675.6,286046999.4,N
1531145695.4,286046999.4,N
1531145715.3,286046996.5,Y
1531145735.1,286046999.0,P
1531145755.8,286046999.1,N
1531145775.7,286046998.4,P
1531145795.5,286046998.2,Y
1531145815.4,286047002.3,P
1531145835.2,286047002.4,N
1531145855.0,286047002.7,N
1531145855.9,286047002.7,N
1531145875.8,286047002.5,N
1531145895.6,286047002.2,N
1531145915.5,286047002.2,N
1531145935.5,286047001.8,N
1531145955.3,286047002.2,N
1531145975.2,286047002.8,N
1531145995.0,286047002.6,N
1531145995.9,286047002.6,N
1531146015.8,286047002.0,N
1531146035.6,286047000.1,N
1531146055.4,286047002.8,N
1531146075.3,286047000.2,N
1531146095.1,286047000.4,N
1531146115.8,286046999.9,N
1531146135.7,286047000.1,N
1531146155.5,286047002.7,N
1531146175.4,286047002.4,N
1531146195.2,286047000.2,N
1531146215.0,286047000.6,N
1531146215.9,286047000.6,N
1531146235.8,286047000.8,N
1531146255.6,286047001.0,N
1531146275.5,286047000.8,N
1531146295.3,286047000.5,N
1531146315.1,286047000.0,N
1531146335.9,286047000.5,N
1531146355.7,286047000.7,N
1531146375.5,286047000.8,N
1531146395.4,286046999.9,N
1531146415.2,286047001.0,N
1531146435.1,286047000.1,N
1531146466.0,286047001.8,E
1531146475.0,286046999.9,N
1531146475.9,286046999.9,P
1531146495.7,286046998.6,P
1531146515.6,286046999.0,N
1531146535.4,286046999.0,N
1531146555.3,286046998.3,Y
1531146575.1,286047001.2,P
1531146595.8,286047001.2,N
1531146615.7,286047001.0,N
1531146635.5,286047000.5,N
1531146655.4,286047000.8,N
1531146675.2,286047001.2,N
1531146695.0,286046998.2,N
1531146695.9,286046998.2,N
1531146715.8,286046998.4,N
1531146735.6,286046998.5,N
1531146755.4,286046998.4,N
1531146775.3,286046998.5,N
1531146795.1,286046999.5,N
1531146815.9,286046998.6,N
1531146835.7,286046998.7,N
1531146855.5,286046998.5,N
1531146875.4,286046998.3,N
1531146895.2,286046998.8,N
1531146915.0,286046998.4,N
1531146915.9,286046998.4,N
1531146935.8,286046998.8,N
1531146955.6,286046998.3,N
1531146975.5,286046998.5,N
1531146995.3,286046998.7,N
1531147015.1,286046999.3,N
1531147035.9,286046996.9,N
1531147055.7,286046999.0,N
1531147075.5,286046998.3,N
1531147095.4,286046998.6,N
1531147115.2,286046998.1,N
1531147135.0,286046998.7,N
1531147136.0,286046998.7,N
1531147155.8,286047000.8,N
1531147175.6,286047001.2,N
1531147195.5,286047000.5,N
1531147215.3,286046999.3,N
1531147235.1,286046998.4,N
1531147255.9,286047001.1,N
1531147275.7,286047001.1,N
1531147295.5,286047000.7,N
1531147315.4,286046998.2,N
1531147335.2,286047000.6,N
1531147355.1,286047000.2,N
1531147356.0,286047000.2,N
1531147375.8,286046999.7,N
1531147395.6,286047000.2,N
1531147415.5,286047000.3,N
1531147435.3,286047001.0,N
1531147455.2,286046999.8,N
1531147475.9,286047002.3,N
1531147495.7,286047002.3,N
1531147515.6,286047000.2,N
1531147535.4,286046999.9,N
1531147555.2,286046999.7,N
1531147575.1,286047002.6,N
1531147576.0,286047002.6,N
1531147595.8,286047002.5,N
1531147615.7,286047002.1,N
1531147635.2,286047002.1,N
1531147655.9,286047002.2,N
1531147675.7,286047002.0,N
1531147695.6,286047001.9,N
1531147715.4,286047001.5,N
1531147735.2,286047002.1,N
1531147755.1,286047001.6,N
1531147756.0,286047001.6,N
1531147775.8,286047001.4,N
1531147795.7,286047002.6,N
1531147815.5,286047002.3,N
1531147835.3,286047001.9,N
1531147855.2,286047001.9,N
1531147875.0,286047002.1,N
1531147875.9,286047002.1,N
1531147895.7,286047002.1,N
1531147915.6,286047001.6,N
1531147935.4,286047002.1,N
1531147955.3,286047001.4,N
1531147975.1,286047002.2,N
1531147976.0,286047002.2,N
1531147995.8,286047001.7,N
1531148015.7,286047001.7,N
1531148035.5,286047003.8,Y
1531148055.4,286047002.4,P
1531148075.2,286046999.8,N
1531148095.0,286047001.2,N
1531148095.9,286047001.2,N
1531148115.8,286047000.8,N
1531148135.6,286047000.4,N
1531148155.4,286047000.8,N
1531148175.3,286047001.1,N
1531148195.1,286047000.7,N
1531148215.9,286046998.1,N
1531148235.7,286047000.9,N
1531148255.5,286047000.4,N
1531148275.4,286047000.6,N
1531148295.2,286047000.7,N
1531148315.0,286047001.0,N
1531148315.9,286047001.0,N
1531148335.8,286047001.1,N
1531148355.6,286047000.7,N
1531148375.5,286047001.1,N
1531148395.3,286047000.8,N
